Time,TemperatureF,DewpointF,PressureIn,WindDirection,WindDirectionDegrees,WindSpeedMPH,WindSpeedGustMPH,Humidity,HourlyPrecipIn,Conditions,Clouds,dailyrainin,SoftwareType,DateUTC
2013-01-11 00:29:00,34.9,34.9,30.19,SE,124,0.0,2.0,100,0.00,,---,0.00,VWS V13.01,2013-01-11 08:29:00,
2013-01-11 00:59:00,35.2,35.2,30.18,SE,124,0.0,2.0,100,0.00,,---,0.00,VWS V13.01,2013-01-11 08:59:00,
2013-01-11 01:29:00,35.6,35.6,30.18,SE,124,0.0,2.0,100,0.00,,---,0.00,VWS V13.01,2013-01-11 09:29:00,
2013-01-11 01:59:00,36.9,36.9,30.18,SE,124,0.0,2.0,100,0.00,,---,0.00,VWS V13.01,2013-01-11 09:59:00,
2013-01-11 02:29:00,36.9,36.9,30.19,SE,124,0.0,1.0,100,0.00,,---,0.00,VWS V13.01,2013-01-11 10:29:00,
2013-01-11 02:59:00,36.8,35.5,30.19,SE,124,0.0,2.0,95,0.00,,---,0.00,VWS V13.01,2013-01-11 10:59:00,
2013-01-11 03:29:00,36.3,35.3,30.19,SE,124,0.0,1.0,96,0.00,,---,0.00,VWS V13.01,2013-01-11 11:29:00,
2013-01-11 03:59:00,35.0,34.8,30.19,SE,124,0.0,0.0,99,0.00,,---,0.00,VWS V13.01,2013-01-11 11:59:00,
2013-01-11 04:29:00,34.9,34.9,30.19,SE,124,0.0,2.0,100,0.00,,---,0.00,VWS V13.01,2013-01-11 12:29:00,
2013-01-11 04:59:00,33.8,33.8,30.20,ESE,123,1.0,2.0,100,0.00,,---,0.00,VWS V13.01,2013-01-11 12:59:00,
2013-01-11 05:29:00,34.1,34.1,30.21,ESE,123,0.0,2.0,100,0.00,,---,0.00,VWS V13.01,2013-01-11 13:29:00,
2013-01-11 05:59:00,34.3,34.3,30.22,ESE,123,0.0,1.0,100,0.00,,---,0.00,VWS V13.01,2013-01-11 13:59:00,
2013-01-11 06:29:00,34.1,34.1,30.24,ESE,123,0.0,1.0,100,0.00,,---,0.00,VWS V13.01,2013-01-11 14:29:00,
2013-01-11 06:59:00,33.7,33.7,30.24,ESE,123,0.0,1.0,100,0.00,,---,0.00,VWS V13.01,2013-01-11 14:59:00,
2013-01-11 07:29:00,33.7,33.7,30.25,ESE,123,0.0,2.0,100,0.00,,---,0.00,VWS V13.01,2013-01-11 15:29:00,
2013-01-11 07:59:00,33.8,33.8,30.25,ESE,123,0.0,2.0,100,0.00,,---,0.00,VWS V13.01,2013-01-11 15:59:00,
2013-01-11 08:29:00,33.5,33.5,30.27,ESE,123,0.0,1.0,100,0.00,,---,0.00,VWS V13.01,2013-01-11 16:29:00,
2013-01-11 08:59:00,37.6,37.6,30.27,ESE,123,0.0,1.0,100,0.00,,---,0.00,VWS V13.01,2013-01-11 16:59:00,
2013-01-11 09:29:00,41.8,41.8,30.26,ESE,123,0.0,1.0,100,0.00,,---,0.00,VWS V13.01,2013-01-11 17:29:00,
2013-01-11 09:59:00,43.8,28.7,30.26,ESE,123,0.0,2.0,55,0.00,,---,0.00,VWS V13.01,2013-01-11 17:59:00,
2013-01-11 10:29:00,45.8,-2.2,30.26,NE,49,0.0,5.0,13,0.00,,---,0.00,VWS V13.01,2013-01-11 18:29:00,
2013-01-11 10:59:00,47.0,-4.8,30.24,SW,216,0.0,5.0,11,0.00,,---,0.00,VWS V13.01,2013-01-11 18:59:00,
2013-01-11 11:29:00,47.6,-13.5,30.23,SSW,199,1.0,5.0,7,0.00,,---,0.00,VWS V13.01,2013-01-11 19:29:00,
2013-01-11 11:59:00,49.8,0.0,30.20,SE,127,1.0,5.0,0,0.00,,---,0.00,VWS V13.01,2013-01-11 19:59:00,
2013-01-11 12:29:00,50.2,0.0,30.19,South,181,3.0,7.0,0,0.00,,---,0.00,VWS V13.01,2013-01-11 20:29:00,
2013-01-11 12:59:00,51.6,0.0,30.17,South,179,2.0,8.0,0,0.00,,---,0.00,VWS V13.01,2013-01-11 20:59:00,
2013-01-11 13:30:00,50.7,0.0,30.16,SW,225,4.0,10.0,0,0.00,,---,0.00,VWS V13.01,2013-01-11 21:30:00,
2013-01-11 14:00:00,49.6,-18.6,30.16,SW,225,3.0,9.0,5,0.00,,---,0.00,VWS V13.01,2013-01-11 22:00:00,
2013-01-11 14:30:00,50.1,-35.2,30.16,SW,225,2.0,7.0,2,0.00,,---,0.00,VWS V13.01,2013-01-11 22:30:00,
2013-01-11 15:00:00,51.9,0.0,30.15,SSE,158,1.0,4.0,0,0.00,,---,0.00,VWS V13.01,2013-01-11 23:00:00,
2013-01-11 15:30:00,51.6,0.0,30.14,South,180,1.0,5.0,0,0.00,,---,0.00,VWS V13.01,2013-01-11 23:30:00,
2013-01-11 16:00:00,51.0,0.0,30.14,WSW,248,2.0,10.0,0,0.00,,---,0.00,VWS V13.01,2013-01-12 00:00:00,
2013-01-11 16:30:00,49.9,-22.7,30.14,SE,135,1.0,8.0,4,0.00,,---,0.00,VWS V13.01,2013-01-12 00:30:00,
2013-01-11 17:00:00,49.1,-3.1,30.14,South,180,1.0,10.0,11,0.00,,---,0.00,VWS V13.01,2013-01-12 01:00:00,
2013-01-11 17:30:00,47.0,12.1,30.13,SW,225,0.0,3.0,24,0.00,,---,0.00,VWS V13.01,2013-01-12 01:30:00,
2013-01-11 18:00:00,45.5,20.1,30.14,South,178,0.0,0.0,36,0.00,,---,0.00,VWS V13.01,2013-01-12 02:00:00,
2013-01-11 18:29:00,44.8,28.7,30.14,South,178,0.0,0.0,53,0.00,,---,0.00,VWS V13.01,2013-01-12 02:29:00,
2013-01-11 18:59:00,44.8,31.4,30.14,South,178,0.0,0.0,59,0.00,,---,0.00,VWS V13.01,2013-01-12 02:59:00,
2013-01-11 19:30:00,44.9,33.9,30.13,North,0,0.0,0.0,65,0.00,,---,0.00,VWS V13.01,2013-01-12 03:30:00,
2013-01-11 20:00:00,44.6,35.1,30.13,North,0,0.0,0.0,69,0.00,,---,0.00,VWS V13.01,2013-01-12 04:00:00,
2013-01-11 20:30:00,44.1,35.3,30.13,North,0,0.0,0.0,71,0.00,,---,0.00,VWS V13.01,2013-01-12 04:30:00,
2013-01-11 20:59:00,41.8,34.8,30.13,South,178,0.0,0.0,76,0.00,,---,0.00,VWS V13.01,2013-01-12 04:59:00,
2013-01-11 21:29:00,40.6,38.2,30.14,South,178,0.0,3.0,91,0.00,,---,0.00,VWS V13.01,2013-01-12 05:29:00,
2013-01-11 21:59:00,39.5,38.7,30.14,South,178,0.0,1.0,97,0.00,,---,0.00,VWS V13.01,2013-01-12 05:59:00,
2013-01-11 22:29:00,39.2,39.2,30.13,South,178,0.0,0.0,100,0.00,,---,0.00,VWS V13.01,2013-01-12 06:29:00,
2013-01-11 22:59:00,41.5,41.5,30.15,NE,40,0.0,5.0,100,0.03,,---,0.03,VWS V13.01,2013-01-12 06:59:00,
2013-01-11 23:29:00,41.8,41.8,30.14,North,3,0.0,3.0,100,0.03,,---,0.03,VWS V13.01,2013-01-12 07:29:00,
2013-01-11 23:59:00,40.8,40.8,30.13,North,3,0.0,2.0,100,0.03,,---,0.03,VWS V13.01,2013-01-12 07:59:00,